Location: Couloutre
(47.4081°N, 3.2259°E)
Time: 00:12:59
(UTC+00:00)

Cosmos 44 Rocket - Pass Details

Date: 27 February 2020
Orbit: 659 x 731 km, 65.1° (Epoch: 04 April)

Event Time Altitude Azimuth Distance (km) Brightness Sun altitude
Rises 18:57:27 0° 321° (NW) 3,006 7.3 -15.8°
Reaches altitude 10° 18:59:45 10° 318° (NW) 2,095 6.4 -16.2°
Maximum altitude 19:04:28 67° 237° (WSW) 732 3.5 -17.0°
Enters shadow 19:08:51 12° 156° (SSE) 1,968 5.3 -17.8°
